SCP
0 0 0 0 0 0 0 0 0 0 0 0 0 0 0 0 0 0 0 0 0 1 1 1 1 1 0 1 1 0 0 0 0 0 0 0 0 0 0 0 0 0 0
0 0 0 0 0 0 0 0 0 0 0 0 0 0 0 0 0 0 0 0 0 1 1 1 1 1 1 1 0 0 0 0 0 0 0 0 0 0 0 0 0 0 0
0 0 0 0 0 0 0 0 0 0 0 0 0 0 0 0 0 0 0 0 0 0 0 1 1 1 0 0 0 0 0 0 0 0 0 0 0 0 0 0 0 0 0
0 0 0 0 0 0 1 0 0 0 0 0 0 0 0 0 0 0 0 0 0 0 0 0 0 0 0 0 0 0 0 0 0 0 0 0 0 0 0 0 0 0 0
0 0 0 0 0 0 1 1 0 0 0 0 0 0 0 0 0 0 0 0 0 0 0 0 0 0 0 0 0 0 0 0 0 0 0 0 0 0 0 0 0 0 0
0 0 0 0 -0 -0 0 1 0 0 0 0 0 0 0 0 0 0 0 0 0 0 0 0 0 0 0 0 0 0 0 0 0 0 0 0 0 0 0 0 0 0 0
0 0 0 0 -0 -0 0 0 0 1 0 0 0 0 0 0 0 0 0 0 0 0 0 0 0 0 0 0 0 0 0 0 0 0 0 0 0 0 0 0 0 0 0
0 0 0 -0 -0 -0 -0 0 0 0 0 0 0 0 0 0 0 0 0 0 0 0 0 0 0 0 0 0 0 0 0 0 0 0 0 0 0 0 0 0 0 0 0
0 0 0 0 -0 -0 -0 -0 0 0 0 0 0 0 0 0 0 0 0 0 0 0 0 0 0 0 0 0 0 0 0 0 0 0 0 0 0 0 0 0 0 0 0
0 0 0 0 -0 -0 -0 -0 -0 0 0 0 0 0 0 0 0 0 0 0 0 0 0 0 0 0 0 0 0 0 0 0 0 0 0 0 0 0 0 0 0 0 0
0 0 0 0 0 -0 -0 -0 -0 -0 0 0 0 0 0 0 0 0 0 0 0 0 0 0 0 0 0 0 0 0 0 0 0 0 0 0 0 0 0 0 0 0 0
-0 0 0 0 0 -0 -0 -0 -0 -0 0 0 0 0 0 0 0 0 0 0 0 0 0 0 0 0 0 0 0 0 0 0 0 0 0 0 0 0 0 0 0 0 0
-0 0 0 0 0 -0 -0 -0 -0 -0 -0 0 0 0 0 0 0 0 0 0 0 0 0 0 0 0 0 0 0 0 0 0 0 0 0 0 0 0 0 0 0 0 0
0 -0 0 0 0 -0 -0 -0 0 -0 0 0 0 0 0 0 0 0 0 0 0 0 0 0 0 0 0 0 0 0 0 0 0 0 0 0 0 0 0 0 0 0 0
0 0 0 0 0 -0 -0 -0 -0 -0 0 0 0 0 0 0 0 0 0 0 0 0 0 0 0 0 0 0 0 0 0 0 0 0 0 0 0 0 0 0 0 0 0
0 0 0 -0 0 0 -0 -0 -0 -0 -0 0 0 0 0 0 0 0 0 0 0 0 0 0 0 0 0 0 0 0 0 0 0 0 0 0 0 0 0 0 0 0 0
0 0 -0 0 0 0 0 -0 -0 -0 -0 -0 0 0 0 0 0 0 0 0 0 0 0 0 0 0 0 0 0 0 0 0 0 0 0 0 0 0 0 0 0 0 0
0 0 -0 -0 -0 0 0 -0 -0 -0 -0 0 0 0 0 0 0 0 0 0 0 0 0 0 0 0 0 0 0 0 0 0 0 0 0 0 0 0 0 0 0 0 0
0 0 -0 -0 -0 0 0 0 -0 0 -0 -0 0 0 0 0 0 0 0 0 0 0 0 0 0 0 0 0 0 0 0 0 0 0 0 0 0 0 0 0 0 0 0
0 0 0 -0 -0 -0 0 0 -0 0 -0 -0 0 0 0 0 0 0 0 0 0 0 0 0 0 0 0 0 0 0 0 0 0 0 0 0 0 0 0 0 0 0 0
0 0 0 0 -0 -0 -0 0 0 -0 0 -0 0 0 0 0 0 0 0 0 0 0 0 0 0 0 0 0 0 0 0 0 0 0 0 0 0 0 0 0 0 0 0
0 0 0 -0 0 -0 -0 0 0 0 0 -0 0 0 0 0 0 0 0 0 0 0 0 0 0 0 0 0 0 0 0 0 0 0 0 0 0 0 0 0 0 0 0
0 0 0 0 -0 0 0 0 0 0 0 -0 -0 0 0 0 0 0 0 0 0 0 0 0 0 0 0 0 0 0 0 0 0 0 0 0 0 0 0 0 0 0 0
0 0 0 0 -0 -0 0 0 0 -0 0 0 -0 0 0 0 0 0 0 0 0 0 0 0 0 0 0 0 0 0 0 0 0 0 0 0 0 0 0 0 0 0 0
0 0 0 0 0 -0 0 0 0 0 0 0 -0 0 0 0 0 0 0 0 0 0 0 0 0 0 0 0 0 0 0 0 0 0 0 0 0 0 0 0 0 0 0
0 0 0 0 0 0 0 0 0 0 0 0 -0 0 0 0 0 0 0 0 0 0 0 0 0 0 0 0 0 0 0 0 0 0 0 0 0 0 0 0 0 0 0
Wind_Speed_500mb
63 73 81 77 74 79 82 80 77 72 72 72 78 79 81 85 86 87 85 79 73 70 73 81 86 88 88 82 74 70 67 67 61 54 47 39 39 44 47 46 47 41 37
66 61 70 81 79 80 86 85 81 79 78 75 81 80 81 84 87 90 91 86 81 72 75 85 91 98 89 81 77 72 70 67 63 55 44 40 50 52 50 48 44 39 36
73 70 70 72 86 82 84 87 84 83 82 76 77 77 76 85 90 93 106 97 89 81 84 97 103 101 93 83 77 73 72 71 66 58 47 48 54 52 50 46 42 40 38
78 78 74 79 60 82 84 93 95 89 90 85 82 80 85 79 76 81 97 92 86 84 94 126 118 101 93 82 76 77 72 66 69 63 54 57 57 54 51 48 46 42 41
80 84 77 77 77 59 83 92 112 106 101 95 93 85 88 87 62 61 61 86 84 78 72 91 100 100 86 82 77 78 75 70 69 66 63 61 58 55 52 50 48 47 47
80 84 85 85 82 86 46 95 104 120 112 104 100 95 94 88 64 55 31 33 73 75 86 86 92 83 85 76 84 78 73 75 73 71 66 62 59 57 55 54 53 51 51
80 87 87 85 87 82 103 51 82 114 118 110 106 99 89 84 75 63 53 56 78 74 88 91 81 81 79 94 80 73 77 78 75 70 66 63 61 60 60 58 55 54 52
83 79 84 87 94 84 93 117 67 86 114 127 98 77 55 65 77 74 89 88 87 57 88 79 79 87 93 90 80 70 78 74 74 69 67 65 64 64 63 60 57 54 50
71 84 83 84 90 82 78 102 114 57 74 111 114 73 43 37 75 79 90 96 98 91 54 100 103 102 92 79 73 70 76 73 71 70 67 67 67 67 63 60 56 52 47
78 73 76 79 86 88 67 77 100 110 64 105 113 102 87 75 87 48 88 102 96 108 80 83 95 92 82 71 70 75 77 76 69 71 71 73 71 67 63 59 53 46 40
69 68 77 79 81 90 85 62 92 109 91 95 126 122 87 81 94 95 74 93 92 97 103 79 82 86 69 61 71 67 71 71 74 76 77 73 70 67 62 54 45 42 43
84 61 60 74 77 86 82 59 71 95 93 63 122 125 121 100 104 96 88 92 95 89 103 102 95 81 73 73 77 71 71 73 76 76 75 72 69 65 54 46 53 55 53
83 78 52 54 75 80 80 72 65 81 96 69 124 129 121 112 113 105 93 94 85 94 94 93 99 94 84 86 77 75 72 74 76 77 76 70 68 61 53 59 52 50 49
80 86 79 60 59 79 79 79 62 59 104 110 95 115 129 107 117 119 111 111 80 85 92 97 108 108 101 94 93 85 79 79 80 77 73 67 62 57 64 58 50 48 45
80 78 79 77 53 75 75 77 62 56 73 81 82 105 129 123 122 114 114 124 121 59 76 94 110 123 106 99 87 93 95 83 76 71 69 68 60 59 57 55 52 48 46
68 67 71 75 60 51 72 78 72 56 50 91 82 117 126 118 123 119 121 115 117 103 77 90 119 130 114 106 102 98 91 83 80 75 75 71 64 58 56 55 49 48 49
68 69 75 69 65 53 61 71 67 63 42 57 68 78 137 120 119 120 122 117 115 97 95 94 108 120 119 108 108 101 93 100 82 92 80 72 65 60 57 53 52 50 50
66 68 71 72 74 63 45 69 59 64 54 59 46 83 123 116 116 119 123 113 116 100 116 114 108 120 123 116 113 105 94 84 80 72 71 72 70 65 62 55 57 53 54
78 68 68 65 70 70 44 60 59 63 62 60 69 57 127 122 111 111 119 118 117 118 104 124 126 111 119 110 109 103 100 94 87 79 75 73 68 69 62 62 60 60 58
70 65 60 60 65 71 65 43 50 59 66 51 52 57 117 128 129 120 119 121 121 115 111 107 116 116 116 116 110 112 105 97 90 85 79 74 75 71 69 67 66 66 63
70 71 61 57 69 71 77 60 46 59 61 56 53 36 118 121 132 139 123 126 126 114 119 112 111 110 122 119 117 108 105 100 93 89 84 81 78 75 74 74 72 69 70
74 69 71 74 69 70 76 81 64 59 68 60 49 70 71 130 130 137 132 128 140 126 116 124 121 117 123 122 127 126 115 103 93 93 89 84 83 86 85 85 79 76 77
70 70 70 69 77 75 67 78 82 78 75 71 51 68 43 139 133 133 125 127 129 131 121 124 122 128 127 132 132 117 112 110 106 99 93 96 95 94 92 86 84 82 82
74 72 71 68 70 72 61 68 81 83 81 83 66 58 43 118 135 136 138 125 129 120 111 122 118 107 117 127 113 99 111 111 103 98 103 102 105 107 98 91 89 88 85
82 76 73 68 66 69 61 62 63 60 79 86 70 65 47 97 129 138 136 132 126 118 113 115 111 94 97 90 104 110 109 115 106 95 107 102 114 111 100 96 96 94 87
78 76 69 57 52 59 59 56 56 54 78 88 74 72 77 91 120 131 128 141 130 129 122 116 111 98 92 97 97 96 98 120 118 91 108 108 101 116 96 108 108 103 97
Wind_Direction_500mb
289 282 281 279 271 259 253 255 252 245 242 239 230 224 221 224 225 215 213 213 211 207 203 201 196 191 188 185 181 178 178 180 183 188 193 182 175 156 149 149 145 146 144
300 289 283 276 272 266 255 254 249 245 240 235 229 225 222 224 224 213 217 219 214 205 202 202 196 192 189 181 178 181 182 182 187 194 194 181 164 159 157 155 155 149 143
298 295 282 275 273 271 262 252 246 239 239 231 230 222 224 215 224 223 219 219 215 206 207 213 203 194 186 184 179 184 185 188 188 190 184 176 167 164 162 160 157 152 146
297 299 289 276 282 271 263 253 244 235 229 223 219 220 219 220 206 217 211 206 206 207 213 211 206 189 187 187 183 186 185 194 183 179 175 169 168 165 162 159 156 151 146
300 301 298 284 272 276 260 254 241 233 223 218 216 219 214 202 187 191 202 206 211 210 205 193 202 181 189 188 185 180 185 177 176 177 174 173 168 166 164 161 154 150 145
304 299 297 293 286 272 276 249 236 232 225 214 206 203 197 202 210 222 255 211 211 209 203 199 216 196 183 184 177 175 169 169 169 172 172 170 169 167 165 160 155 151 147
296 299 299 297 299 292 267 301 240 239 221 214 204 204 216 221 221 232 230 240 221 205 204 185 173 181 182 176 179 175 169 166 169 170 171 171 170 167 164 159 154 152 148
297 293 296 298 298 305 276 266 295 240 214 206 200 196 186 205 224 228 222 223 211 208 199 193 191 183 175 174 174 177 171 170 169 172 171 172 169 166 162 158 156 154 153
290 293 290 291 293 302 288 271 265 295 226 197 202 192 181 193 183 206 216 215 215 216 198 196 183 178 176 175 175 177 171 172 172 171 172 172 167 165 160 159 157 154 156
287 286 291 286 289 287 279 274 261 270 291 197 205 204 201 203 179 171 203 206 208 213 224 185 176 167 175 175 179 178 177 175 172 172 173 172 167 165 161 162 158 160 164
285 283 287 283 283 287 297 267 265 272 275 218 198 198 193 199 190 179 180 199 207 214 215 185 182 175 181 187 189 188 184 176 178 175 173 170 168 166 164 169 170 168 164
283 286 282 282 278 285 290 282 264 268 262 262 202 194 193 186 187 182 177 180 189 196 197 197 185 186 187 191 188 194 187 180 178 174 174 172 172 169 171 176 172 167 169
287 277 283 290 282 283 294 284 290 268 271 316 202 194 194 196 196 187 176 175 181 186 192 202 207 197 191 189 193 193 185 183 179 176 174 174 175 179 179 177 179 181 183
297 277 276 288 287 279 284 292 284 265 264 267 220 193 194 193 196 193 188 176 171 180 189 189 188 200 190 189 195 195 188 186 180 175 176 179 184 184 183 186 194 194 195
295 287 278 281 284 279 278 289 286 268 261 270 220 209 196 193 198 203 197 197 184 171 179 192 187 189 192 192 195 193 188 183 178 178 180 182 185 189 194 201 202 203 203
298 295 276 269 276 283 277 284 294 279 266 261 273 205 196 191 195 200 203 206 194 188 181 192 199 186 191 190 190 191 189 186 187 188 188 190 193 196 202 208 208 208 207
285 280 276 268 267 276 268 273 282 278 271 261 274 216 188 187 189 195 201 202 197 192 182 186 196 188 186 186 190 190 193 191 202 195 189 197 204 206 211 215 214 211 209
296 284 280 269 262 270 272 268 277 274 270 258 280 214 188 189 188 192 199 202 194 186 188 188 190 185 185 187 192 192 193 198 204 202 200 204 210 214 216 218 217 213 211
298 288 280 272 261 256 262 268 274 274 275 258 256 271 195 194 184 187 194 193 193 189 192 194 188 188 183 189 189 193 195 198 202 207 211 213 217 218 220 218 217 213 211
302 295 283 278 266 257 253 251 270 265 271 269 241 271 200 197 190 190 190 190 188 188 193 202 193 191 192 190 195 193 194 198 202 205 211 216 219 218 219 216 214 214 210
295 290 278 277 275 264 251 249 250 262 268 272 240 311 197 203 199 198 190 192 195 190 196 197 195 190 190 192 193 198 200 198 200 206 208 210 210 209 211 214 213 213 209
298 293 280 268 268 267 254 242 245 256 265 275 246 244 214 211 202 195 200 204 201 196 197 199 200 201 200 198 199 200 199 196 194 203 206 206 208 210 207 211 211 210 207
308 298 290 279 264 267 263 245 239 246 256 267 261 244 281 200 199 199 194 201 206 207 208 206 204 202 198 202 202 199 207 206 205 205 203 205 206 208 208 210 212 208 208
312 306 299 286 271 261 264 254 238 241 250 259 263 256 257 198 200 203 194 199 204 205 210 208 211 208 208 205 211 210 213 208 209 208 205 202 204 208 207 208 211 211 211
313 305 300 293 273 258 258 256 230 237 248 253 256 249 239 205 204 202 199 199 199 203 209 208 212 213 207 205 210 208 208 206 203 203 203 207 205 208 205 208 210 213 213
310 304 300 293 279 265 258 246 229 232 243 248 254 251 229 213 213 206 207 200 199 200 201 202 208 210 209 213 221 223 222 210 207 201 206 203 208 205 203 210 212 211 212
Wind_Speed_850mb
63 73 81 77 74 79 82 80 77 72 72 72 78 79 81 85 86 87 85 79 73 70 73 81 86 88 88 82 74 70 67 67 61 54 47 39 39 44 47 46 47 41 37
66 61 70 81 79 80 86 85 81 79 78 75 81 80 81 84 87 90 91 86 81 72 75 85 91 98 89 81 77 72 70 67 63 55 44 40 50 52 50 48 44 39 36
73 70 70 72 86 82 84 87 84 83 82 76 77 77 76 85 90 93 106 97 89 81 84 97 103 101 93 83 77 73 72 71 66 58 47 48 54 52 50 46 42 40 38
78 78 74 79 60 82 84 93 95 89 90 85 82 80 85 79 76 81 97 92 86 84 94 126 118 101 93 82 76 77 72 66 69 63 54 57 57 54 51 48 46 42 41
80 84 77 77 77 59 83 92 112 106 101 95 93 85 88 87 62 61 61 86 84 78 72 91 100 100 86 82 77 78 75 70 69 66 63 61 58 55 52 50 48 47 47
80 84 85 85 82 86 46 95 104 120 112 104 100 95 94 88 64 55 31 33 73 75 86 86 92 83 85 76 84 78 73 75 73 71 66 62 59 57 55 54 53 51 51
80 87 87 85 87 82 103 51 82 114 118 110 106 99 89 84 75 63 53 56 78 74 88 91 81 81 79 94 80 73 77 78 75 70 66 63 61 60 60 58 55 54 52
83 79 84 87 94 84 93 117 67 86 114 127 98 77 55 65 77 74 89 88 87 57 88 79 79 87 93 90 80 70 78 74 74 69 67 65 64 64 63 60 57 54 50
71 84 83 84 90 82 78 102 114 57 74 111 114 73 43 37 75 79 90 96 98 91 54 100 103 102 92 79 73 70 76 73 71 70 67 67 67 67 63 60 56 52 47
78 73 76 79 86 88 67 77 100 110 64 105 113 102 87 75 87 48 88 102 96 108 80 83 95 92 82 71 70 75 77 76 69 71 71 73 71 67 63 59 53 46 40
69 68 77 79 81 90 85 62 92 109 91 95 126 122 87 81 94 95 74 93 92 97 103 79 82 86 69 61 71 67 71 71 74 76 77 73 70 67 62 54 45 42 43
84 61 60 74 77 86 82 59 71 95 93 63 122 125 121 100 104 96 88 92 95 89 103 102 95 81 73 73 77 71 71 73 76 76 75 72 69 65 54 46 53 55 53
83 78 52 54 75 80 80 72 65 81 96 69 124 129 121 112 113 105 93 94 85 94 94 93 99 94 84 86 77 75 72 74 76 77 76 70 68 61 53 59 52 50 49
80 86 79 60 59 79 79 79 62 59 104 110 95 115 129 107 117 119 111 111 80 85 92 97 108 108 101 94 93 85 79 79 80 77 73 67 62 57 64 58 50 48 45
80 78 79 77 53 75 75 77 62 56 73 81 82 105 129 123 122 114 114 124 121 59 76 94 110 123 106 99 87 93 95 83 76 71 69 68 60 59 57 55 52 48 46
68 67 71 75 60 51 72 78 72 56 50 91 82 117 126 118 123 119 121 115 117 103 77 90 119 130 114 106 102 98 91 83 80 75 75 71 64 58 56 55 49 48 49
68 69 75 69 65 53 61 71 67 63 42 57 68 78 137 120 119 120 122 117 115 97 95 94 108 120 119 108 108 101 93 100 82 92 80 72 65 60 57 53 52 50 50
66 68 71 72 74 63 45 69 59 64 54 59 46 83 123 116 116 119 123 113 116 100 116 114 108 120 123 116 113 105 94 84 80 72 71 72 70 65 62 55 57 53 54
78 68 68 65 70 70 44 60 59 63 62 60 69 57 127 122 111 111 119 118 117 118 104 124 126 111 119 110 109 103 100 94 87 79 75 73 68 69 62 62 60 60 58
70 65 60 60 65 71 65 43 50 59 66 51 52 57 117 128 129 120 119 121 121 115 111 107 116 116 116 116 110 112 105 97 90 85 79 74 75 71 69 67 66 66 63
70 71 61 57 69 71 77 60 46 59 61 56 53 36 118 121 132 139 123 126 126 114 119 112 111 110 122 119 117 108 105 100 93 89 84 81 78 75 74 74 72 69 70
74 69 71 74 69 70 76 81 64 59 68 60 49 70 71 130 130 137 132 128 140 126 116 124 121 117 123 122 127 126 115 103 93 93 89 84 83 86 85 85 79 76 77
70 70 70 69 77 75 67 78 82 78 75 71 51 68 43 139 133 133 125 127 129 131 121 124 122 128 127 132 132 117 112 110 106 99 93 96 95 94 92 86 84 82 82
74 72 71 68 70 72 61 68 81 83 81 83 66 58 43 118 135 136 138 125 129 120 111 122 118 107 117 127 113 99 111 111 103 98 103 102 105 107 98 91 89 88 85
82 76 73 68 66 69 61 62 63 60 79 86 70 65 47 97 129 138 136 132 126 118 113 115 111 94 97 90 104 110 109 115 106 95 107 102 114 111 100 96 96 94 87
78 76 69 57 52 59 59 56 56 54 78 88 74 72 77 91 120 131 128 141 130 129 122 116 111 98 92 97 97 96 98 120 118 91 108 108 101 116 96 108 108 103 97
Wind_Direction_850mb
289 282 281 279 271 259 253 255 252 245 242 239 230 224 221 224 225 215 213 213 211 207 203 201 196 191 188 185 181 178 178 180 183 188 193 182 175 156 149 149 145 146 144
300 289 283 276 272 266 255 254 249 245 240 235 229 225 222 224 224 213 217 219 214 205 202 202 196 192 189 181 178 181 182 182 187 194 194 181 164 159 157 155 155 149 143
298 295 282 275 273 271 262 252 246 239 239 231 230 222 224 215 224 223 219 219 215 206 207 213 203 194 186 184 179 184 185 188 188 190 184 176 167 164 162 160 157 152 146
297 299 289 276 282 271 263 253 244 235 229 223 219 220 219 220 206 217 211 206 206 207 213 211 206 189 187 187 183 186 185 194 183 179 175 169 168 165 162 159 156 151 146
300 301 298 284 272 276 260 254 241 233 223 218 216 219 214 202 187 191 202 206 211 210 205 193 202 181 189 188 185 180 185 177 176 177 174 173 168 166 164 161 154 150 145
304 299 297 293 286 272 276 249 236 232 225 214 206 203 197 202 210 222 255 211 211 209 203 199 216 196 183 184 177 175 169 169 169 172 172 170 169 167 165 160 155 151 147
296 299 299 297 299 292 267 301 240 239 221 214 204 204 216 221 221 232 230 240 221 205 204 185 173 181 182 176 179 175 169 166 169 170 171 171 170 167 164 159 154 152 148
297 293 296 298 298 305 276 266 295 240 214 206 200 196 186 205 224 228 222 223 211 208 199 193 191 183 175 174 174 177 171 170 169 172 171 172 169 166 162 158 156 154 153
290 293 290 291 293 302 288 271 265 295 226 197 202 192 181 193 183 206 216 215 215 216 198 196 183 178 176 175 175 177 171 172 172 171 172 172 167 165 160 159 157 154 156
287 286 291 286 289 287 279 274 261 270 291 197 205 204 201 203 179 171 203 206 208 213 224 185 176 167 175 175 179 178 177 175 172 172 173 172 167 165 161 162 158 160 164
285 283 287 283 283 287 297 267 265 272 275 218 198 198 193 199 190 179 180 199 207 214 215 185 182 175 181 187 189 188 184 176 178 175 173 170 168 166 164 169 170 168 164
283 286 282 282 278 285 290 282 264 268 262 262 202 194 193 186 187 182 177 180 189 196 197 197 185 186 187 191 188 194 187 180 178 174 174 172 172 169 171 176 172 167 169
287 277 283 290 282 283 294 284 290 268 271 316 202 194 194 196 196 187 176 175 181 186 192 202 207 197 191 189 193 193 185 183 179 176 174 174 175 179 179 177 179 181 183
297 277 276 288 287 279 284 292 284 265 264 267 220 193 194 193 196 193 188 176 171 180 189 189 188 200 190 189 195 195 188 186 180 175 176 179 184 184 183 186 194 194 195
295 287 278 281 284 279 278 289 286 268 261 270 220 209 196 193 198 203 197 197 184 171 179 192 187 189 192 192 195 193 188 183 178 178 180 182 185 189 194 201 202 203 203
298 295 276 269 276 283 277 284 294 279 266 261 273 205 196 191 195 200 203 206 194 188 181 192 199 186 191 190 190 191 189 186 187 188 188 190 193 196 202 208 208 208 207
285 280 276 268 267 276 268 273 282 278 271 261 274 216 188 187 189 195 201 202 197 192 182 186 196 188 186 186 190 190 193 191 202 195 189 197 204 206 211 215 214 211 209
296 284 280 269 262 270 272 268 277 274 270 258 280 214 188 189 188 192 199 202 194 186 188 188 190 185 185 187 192 192 193 198 204 202 200 204 210 214 216 218 217 213 211
298 288 280 272 261 256 262 268 274 274 275 258 256 271 195 194 184 187 194 193 193 189 192 194 188 188 183 189 189 193 195 198 202 207 211 213 217 218 220 218 217 213 211
302 295 283 278 266 257 253 251 270 265 271 269 241 271 200 197 190 190 190 190 188 188 193 202 193 191 192 190 195 193 194 198 202 205 211 216 219 218 219 216 214 214 210
295 290 278 277 275 264 251 249 250 262 268 272 240 311 197 203 199 198 190 192 195 190 196 197 195 190 190 192 193 198 200 198 200 206 208 210 210 209 211 214 213 213 209
298 293 280 268 268 267 254 242 245 256 265 275 246 244 214 211 202 195 200 204 201 196 197 199 200 201 200 198 199 200 199 196 194 203 206 206 208 210 207 211 211 210 207
308 298 290 279 264 267 263 245 239 246 256 267 261 244 281 200 199 199 194 201 206 207 208 206 204 202 198 202 202 199 207 206 205 205 203 205 206 208 208 210 212 208 208
312 306 299 286 271 261 264 254 238 241 250 259 263 256 257 198 200 203 194 199 204 205 210 208 211 208 208 205 211 210 213 208 209 208 205 202 204 208 207 208 211 211 211
313 305 300 293 273 258 258 256 230 237 248 253 256 249 239 205 204 202 199 199 199 203 209 208 212 213 207 205 210 208 208 206 203 203 203 207 205 208 205 208 210 213 213
310 304 300 293 279 265 258 246 229 232 243 248 254 251 229 213 213 206 207 200 199 200 201 202 208 210 209 213 221 223 222 210 207 201 206 203 208 205 203 210 212 211 212